FENGYUN 1C DEB, 30539

Orbit data source: Space-Track

FENGYUN 1C DEB, 30539 is space debris in SSO originally from a launch on Mon, 10 May 1999 UTC launched from the Taiyaun Space Center, China (TSC). Fengyun 1C debris stems from the Chinese weather satellite Fengyun-1C, which was intentionally destroyed by a Chinese anti-satellite missile in 2007. This event dramatically increased the amount of space debris, with thousands of trackable fragments posing hazards to satellites and human spaceflight. The Fengyun 1C debris cloud has become a focal point in discussions about space sustainability and the need for international regulations to prevent the creation of new debris.

Loading next visibility...
Identifier
30539, 1999-025AKD
Orbit
SSO
Country
Flag of CNCN / PRC
Related business
Manufacturer
Unknown
Mission
Spacecraft
Bus & Motor
Unknown
Mass
Unknown
Launch date (UTC)
1999-05-10 (27 years ago)
Launch vehicle
Unknown
Launch site
Taiyaun Space Center, China (TSC)
Object type
Payload
Rocket body
Debris
Shape & HBR
Unknown shape, 0.1 m
Radar Cross Section
Small (<0.1 m²)

Expand to show TLE details & history
Last TLE update: 15 hours ago

TLE from 15 hours ago
0 FENGYUN 1C DEB
1 30539U 99025AKD 25341.20969818  .00004252  00000-0  90762-3 0  9993
2 30539  98.8794 321.3177 0115789 292.7156  66.1834 14.55339274992858
Epoch: 2025-12-07T05:01Z
TLE epoch observation values (Epoch: 2025-12-07T05:01:57.922Z)
Latitude
-0.00003°
Longitude
169.6°
Altitude
678.881 km
Speed
7.534 km/s
True Right ascension
21h 25m 16s
True Declination
0° 00' 00"
Sunlit
Object was in daylight at epoch
Visualization orbit readout
Latitude
Unknown
Longitude
Unknown
Altitude
Unknown
Speed
Unknown
Apparent Right ascension
Unknown
Apparent Declination
Unknown
Sunlit
N/A
Visualization observer readout
Local Sidereal Time
17:52:38
Azimuth
Unknown
Elevation
Unknown
Doppler factor
Unknown
Orbital elements
Apogee altitude
787.402 km
Perigee altitude
623.363 km
Semi-major axis
7,083.519 km
Eccentricity
0.01158
Inclination
98.8794°
RAAN
321.3177°
Arg. of periapsis
292.7156°
True anomaly
67.4043°
Mean anomaly
66.1834°
Eccentric anomaly
66.79314°
Mean motion
3.64057 °/min
Orbital period
98.89 mins
BSTAR
0.00090762
Loading maneuver chart data...
Computing Atmospheric mass density...

Documentation

Showing up to 5 results
|